Weather History for EDDM - August, 2013

Change the Weather History Date:

Friday, August 16, 2013

  Actual Average Record
Temperature  
Mean Temperature 61 °F -  
Max Temperature 78 °F 70 °F 87 °F (2001)
Min Temperature 44 °F 50 °F 44 °F (2013)
Degree Days  
Heating Degree Days 4    
Growing Degree Days 11 (Base 50)    
Moisture  
Dew Point 48 °F    
Average Humidity 65    
Maximum Humidity 100    
Minimum Humidity 28    
Precipitation  
Precipitation 0.00 in 0.11 in - ()
Sea Level Pressure  
Sea Level Pressure 30.13 in    
Wind  
Wind Speed 3 mph ()    
Max Wind Speed 8 mph    
Max Gust Speed -    
Visibility 6.2 miles    
Events Fog    
Averages and records for this station are not official NWS values.
T = Trace of Precipitation, MM = Missing Value Source: Averaged Metar Reports

Daily Weather History Graph

Daily Weather History Graph

Search for Another Location

Airport or City:

Trip Planner

Search our weather history database for the weather conditions in past years. The results will help you decide how hot, cold, wet, or windy it might be!

Date:

Astronomy

Aug. 16, 2013 Rise Set
Actual Time 6:08 AM CEST 8:24 PM CEST
Civil Twilight 5:33 AM CEST 8:59 PM CEST
Nautical Twilight 4:50 AM CEST 9:41 PM CEST
Astronomical Twilight 4:01 AM CEST 10:30 PM CEST
Moon 4:36 PM CEST (8/16) 12:46 AM CEST (8/16)
Length of Visible Light 15h 25m
Length of Day
14h 16m
Waxing Gibbous, 72% of the Moon is Illuminated
Aug 16
Waxing Gibbous
Aug 21
Full
Aug 28
Last Quarter
Sep 5
New
Sep 12
First Quarter

Hourly Weather History & Observations

Time (CEST) Temp. Dew Point Humidity Pressure Visibility Wind Dir Wind Speed Gust Speed Precip Events Conditions
12:20 AM 51.8 °F 46.4 °F 82% 30.18 in - NNW 1.2 mph - N/A   Clear
12:50 AM 51.8 °F 46.4 °F 82% 30.18 in - ESE 2.3 mph - N/A   Clear
1:20 AM 50.0 °F 46.4 °F 87% 30.18 in - NW 1.2 mph - N/A   Clear
1:50 AM 50.0 °F 46.4 °F 87% 30.18 in - NNW 2.3 mph - N/A   Clear
2:20 AM 48.2 °F 44.6 °F 87% 30.18 in - Variable 2.3 mph - N/A   Clear
2:50 AM 48.2 °F 46.4 °F 93% 30.18 in - Variable 1.2 mph - N/A   Clear
3:20 AM 46.4 °F 44.6 °F 93% 30.18 in - South 2.3 mph - N/A   Clear
3:50 AM 46.4 °F 44.6 °F 93% 30.18 in - NNW 1.2 mph - N/A   Clear
4:20 AM 46.4 °F 44.6 °F 93% 30.18 in - NNW 1.2 mph - N/A   Clear
4:50 AM 44.6 °F 44.6 °F 100% 30.18 in - Variable 1.2 mph - N/A   Clear
5:20 AM 44.6 °F 44.6 °F 100% 30.18 in - NW 1.2 mph - N/A   Clear
5:50 AM 44.6 °F 44.6 °F 100% 30.18 in 6.2 mi Variable 1.2 mph - N/A Fog Shallow Fog
6:20 AM 44.6 °F 42.8 °F 93% 30.18 in 6.2 mi North 1.2 mph - N/A Fog Shallow Fog
6:50 AM 44.6 °F 44.6 °F 100% 30.18 in - South 2.3 mph - N/A   Clear
7:20 AM 48.2 °F 48.2 °F 100% 30.18 in - Variable 1.2 mph - N/A   Clear
7:50 AM 51.8 °F 51.8 °F 100% 30.18 in - NE 3.5 mph - N/A   Clear
8:20 AM 55.4 °F 51.8 °F 88% 30.18 in - ENE 2.3 mph - N/A   Clear
8:50 AM 59.0 °F 51.8 °F 77% 30.18 in - ENE 3.5 mph - N/A   Clear
9:20 AM 60.8 °F 51.8 °F 72% 30.18 in - ENE 3.5 mph - N/A   Clear
9:50 AM 62.6 °F 53.6 °F 72% 30.18 in - ENE 4.6 mph - N/A   Clear
10:20 AM 66.2 °F 53.6 °F 64% 30.15 in - ENE 4.6 mph - N/A   Clear
10:50 AM 68.0 °F 53.6 °F 60% 30.15 in - ENE 5.8 mph - N/A   Clear
11:20 AM 71.6 °F 51.8 °F 50% 30.15 in - East 6.9 mph - N/A   Clear
11:50 AM 71.6 °F 46.4 °F 41% 30.15 in - East 6.9 mph - N/A   Clear
12:20 PM 73.4 °F 48.2 °F 41% 30.12 in - East 8.1 mph - N/A   Clear
12:50 PM 75.2 °F 48.2 °F 38% 30.12 in - ENE 6.9 mph - N/A   Clear
1:20 PM 75.2 °F 48.2 °F 38% 30.12 in - East 5.8 mph - N/A   Clear
1:50 PM 75.2 °F 50.0 °F 41% 30.12 in - ENE 4.6 mph - N/A   Clear
2:20 PM 77.0 °F 46.4 °F 34% 30.12 in - NNE 4.6 mph - N/A   Clear
2:50 PM 77.0 °F 46.4 °F 34% 30.09 in - Variable 3.5 mph - N/A   Clear
3:20 PM 77.0 °F 44.6 °F 32% 30.09 in - East 4.6 mph - N/A   Clear
3:50 PM 78.8 °F 44.6 °F 30% 30.09 in - NE 8.1 mph - N/A   Clear
4:20 PM 78.8 °F 42.8 °F 28% 30.09 in - East 5.8 mph - N/A   Clear
4:50 PM 78.8 °F 44.6 °F 30% 30.06 in - Variable 2.3 mph - N/A   Clear
5:20 PM 78.8 °F 46.4 °F 32% 30.06 in - Variable 3.5 mph - N/A   Clear
5:50 PM 77.0 °F 46.4 °F 34% 30.06 in - NE 4.6 mph - N/A   Clear
6:20 PM 77.0 °F 44.6 °F 32% 30.06 in - NNE 5.8 mph - N/A   Clear
6:50 PM 77.0 °F 46.4 °F 34% 30.06 in - North 3.5 mph - N/A   Clear
7:20 PM 77.0 °F 50.0 °F 39% 30.06 in - ENE 3.5 mph - N/A   Clear
7:50 PM 75.2 °F 46.4 °F 36% 30.06 in - NE 3.5 mph - N/A   Clear
8:20 PM 71.6 °F 53.6 °F 53% 30.06 in - NE 3.5 mph - N/A   Clear
8:50 PM 66.2 °F 51.8 °F 60% 30.06 in - NE 3.5 mph - N/A   Clear
9:20 PM 64.4 °F 51.8 °F 64% 30.06 in - NNE 2.3 mph - N/A   Clear
9:50 PM 62.6 °F 51.8 °F 68% 30.06 in - East 2.3 mph - N/A   Clear
10:20 PM 60.8 °F 51.8 °F 72% 30.06 in - Variable 2.3 mph - N/A   Clear
10:50 PM 59.0 °F 51.8 °F 77% 30.06 in - North 2.3 mph - N/A   Clear
11:20 PM 57.2 °F 51.8 °F 82% 30.06 in - North 1.2 mph - N/A   Clear
11:50 PM 55.4 °F 51.8 °F 88% 30.09 in - NW 2.3 mph - N/A   Clear